Montreal Mirabel, Quebec

7:55 AM EST on February 25, 2018 (GMT -0500)
Montreal Mirabel

Weather History for CYMX - July, 2013

Change the Weather History Date:

Monday, July 8, 2013

  Actual Average Record
Temperature  
Mean Temperature 70 °F -  
Max Temperature 77 °F 74 °F 95 °F (2010)
Min Temperature 64 °F 56 °F 46 °F (2000)
Cooling Degree Days 6    
Growing Degree Days 20 (Base 50)    
Moisture  
Dew Point 59 °F    
Average Humidity 70    
Maximum Humidity 100    
Minimum Humidity 54    
Precipitation  
Precipitation 0.00 in - - ()
Sea Level Pressure  
Sea Level Pressure 30.03 in    
Wind  
Wind Speed 4 mph ()    
Max Wind Speed 10 mph    
Max Gust Speed -    
Visibility 18.5 miles    
Events      
Averages and records for this station are not official NWS values.
T = Trace of Precipitation, MM = Missing Value Source: Averaged Metar Reports

Daily Weather History Graph

Daily Weather History Graph

Search for Another Location

Airport or City:

Trip Planner

Search our weather history database for the weather conditions in past years. The results will help you decide how hot, cold, wet, or windy it might be!

Date:

Astronomy

Jul. 08, 2013 Rise Set
Actual Time 5:15 AM EDT 8:46 PM EDT
Civil Twilight 4:38 AM EDT 9:23 PM EDT
Nautical Twilight 3:48 AM EDT 10:13 PM EDT
Astronomical Twilight 2:43 AM EDT 11:17 PM EDT
Moon 5:47 AM EDT (7/8) 8:41 PM EDT (7/8)
Length of Visible Light 16h 45m
Length of Day
15h 31m
New Moon, 0% of the Moon is Illuminated
Jul 8
New Moon
Jul 15
First Quarter
Jul 22
Full
Jul 29
Last Quarter
Aug 6
New

Hourly Weather History & Observations

Time (EDT) Temp. Dew Point Humidity Pressure Visibility Wind Dir Wind Speed Gust Speed Precip Events Conditions
12:00 AM 64.4 °F 64.4 °F 100% 29.98 in 15.0 mi Calm Calm - N/A   Overcast
1:00 AM 64.4 °F 64.4 °F 100% 29.98 in 15.0 mi NE 3.5 mph - N/A   Overcast
2:00 AM 66.2 °F 60.8 °F 83% 29.99 in 15.0 mi ENE 4.6 mph - N/A   Overcast
3:00 AM 64.4 °F 59.0 °F 83% 29.98 in 15.0 mi ENE 4.6 mph - N/A   Overcast
4:00 AM 64.4 °F 57.2 °F 77% 29.99 in 25.0 mi ENE 8.1 mph - N/A   Overcast
5:00 AM 64.4 °F 57.2 °F 77% 30.00 in 20.0 mi ENE 5.8 mph - N/A   Overcast
6:00 AM 64.4 °F 57.2 °F 77% 30.01 in 25.0 mi NE 5.8 mph - N/A   Overcast
7:00 AM 64.4 °F 57.2 °F 77% 30.02 in 25.0 mi NE 3.5 mph - N/A   Mostly Cloudy
8:00 AM 64.4 °F 53.6 °F 68% 30.03 in 25.0 mi NE 8.1 mph - N/A   Mostly Cloudy
9:00 AM 66.2 °F 53.6 °F 64% 30.04 in 25.0 mi NE 9.2 mph - N/A   Mostly Cloudy
10:00 AM 69.8 °F 55.4 °F 60% 30.04 in 45.0 mi ENE 9.2 mph - N/A   Scattered Clouds
11:00 AM 71.6 °F 55.4 °F 57% 30.06 in 45.0 mi ENE 10.4 mph - N/A   Scattered Clouds
12:00 PM 73.4 °F 57.2 °F 57% 30.05 in 25.0 mi ENE 8.1 mph - N/A   Scattered Clouds
1:00 PM 73.4 °F 57.2 °F 57% 30.06 in 25.0 mi NE 4.6 mph - N/A   Overcast
2:00 PM 73.4 °F 57.2 °F 57% 30.06 in 25.0 mi NE 5.8 mph - N/A   Mostly Cloudy
3:00 PM 75.2 °F 59.0 °F 57% 30.05 in 20.0 mi East 5.8 mph - N/A   Mostly Cloudy
4:00 PM 77.0 °F 59.0 °F 54% 30.04 in 25.0 mi NNE 3.5 mph - N/A   Mostly Cloudy
5:00 PM 77.0 °F 59.0 °F 54% 30.03 in 20.0 mi ENE 3.5 mph - N/A   Scattered Clouds
6:00 PM 77.0 °F 59.0 °F 54% 30.04 in 20.0 mi NE 2.3 mph - N/A   Mostly Cloudy
7:00 PM 73.4 °F 62.6 °F 69% 30.04 in 20.0 mi ENE 2.3 mph - N/A   Scattered Clouds
8:00 PM 71.6 °F 62.6 °F 73% 30.04 in 20.0 mi East 2.3 mph - N/A   Mostly Cloudy
9:00 PM 71.6 °F 62.6 °F 73% 30.06 in 20.0 mi ENE 3.5 mph - N/A   Mostly Cloudy
10:00 PM 69.8 °F 60.8 °F 73% 30.07 in 20.0 mi East 4.6 mph - N/A   Overcast
11:00 PM 69.8 °F 60.8 °F 73% 30.07 in 20.0 mi NE 4.6 mph - N/A   Scattered Clouds